7 * 24
多渠道服务支持
STARLINK-36056是美国太空探索技术公司(SpaceX)研发运营的星链(Starlink)星座卫星,于2025年12月17日发射,运行于近地轨道,轨道倾角约53度,近地点高度约477公里。作为星链巨型低轨互联网星座组成部分,它旨在为全球提供低延迟、高速率的卫星互联网接入服务,目前仍在轨正常工作。
美国
(US)
| 数据来源 | 国际轨道数据 | AOE轨道数据 |
| 星历时间 | 2026-09-12T12:03:38+0800 15小时前 查看轨道信息 | 2026-09-07T02:00:00+0800 6天前 查看轨道信息 |
| 半长轴 | 6950.188km | 6950.164km |
| 偏心率 | 0.0003491 | 0.0003119 |
| 轨道倾角 | 70.000° | 69.999° |
| 近地点辐角 | 272.371° | 269.923° |
| 升交点赤经 | 64.425° | 78.088° |
| 平近点角 | 87.705° | 27.480° |
| 近地点 | 569.624km | 569.859km |
| 远地点 | 574.478km | 574.195km |
| 周期 | 96.107分钟 | 96.106分钟 |
| 每日圈数 | 14.983319 | 14.983396 |
| 事件ID | 空间交会对象 | 最接近时刻(TCA) | 交会距离 | 交会风险概率(CRP) | 交会风险指数(CRI) | 操作 |
|---|---|---|---|---|---|---|
| CDM_260914-074306-290206-720622 |
COSMOS 2581
(62902)
STARLINK-36056
(67206) | 2026-09-14T 07:43:11+0000 |
2.208 km
极远距离 | 1.674726E-6 低风险 | 0.39 |